Home > Time Zones > World Clock > Weather > Iran > Kerman > Past weeks

Flag for Iran Weather past 2 weeks in Kerman, Iran

Now
79 °F

Passing clouds.


Feels Like: 78 °F
Forecast: 57 / 86 °F
Wind: 18 mph from North

Location: Kerman Airport

Current Time: May 24, 2015 at 10:17:43 AM

Latest Report: May 24, 2015 at 9:30 AM


Visibility: N/A

Pressure: 30.18 "Hg

Humidity: 20%

Dew point: 34 °F

Location of KermanLocation

Historic Weather in Kerman — Graph

°F

Kerman temperature yesterday

Maximum temperature yesterday: 90 °F (at 1:30 PM)
Minimum temperature yesterday: 59 °F (at 6:30 AM)
Average temperature yesterday: 78 °F

Past Weeks' High & Low Weather Summary

 TemperatureHumidityPressure
High97 °F (May 15, 4:30 PM)82% (May 10, 5:30 AM)30.27 "Hg (May 10, 5:30 AM)
Low50 °F (May 12, 5:30 AM)2% (May 17, 4:30 PM)29.98 "Hg (May 9, 4:00 PM)
Average75 °F22%30.11 "Hg
* Reported May 9 9:30 AM — May 24 9:30 AM, Kerman, Weather by CustomWeather, © 2015

Note: Actual official high and low records may vary slightly from our data, if they occured in-between our weather recording intervals... More about our weather records

Advertising

Kerman weather history for previous 24 hours

 ConditionsComfort  
Time TempWeatherWind HumidityBarometerVisibility
9:30 AM
Sun, May 24
79 °FPassing clouds.18 mph20%30.18 "HgN/A
9:00 AM79 °FSunny.16 mph20%30.18 "Hg10 mi
8:30 AM75 °FSunny.No wind22%30.18 "Hg10 mi
8:00 AM72 °FSunny.9 mph27%30.15 "Hg10 mi
7:30 AM66 °FScattered clouds.9 mph30%30.15 "HgN/A
6:30 AM66 °FPassing clouds.7 mph28%30.12 "HgN/A
5:30 AM64 °FClear.7 mph28%30.12 "Hg10 mi
4:30 AM70 °FClear.9 mph23%30.09 "Hg10 mi
3:30 AM70 °FClear.12 mph23%30.09 "Hg10 mi
2:30 AM68 °FClear.5 mph26%30.09 "Hg10 mi
1:30 AM68 °FClear.7 mph24%30.09 "Hg10 mi
12:30 AM72 °FClear.7 mph23%30.12 "Hg10 mi
11:30 PM
Sat, May 23
75 °FClear.12 mph21%30.12 "Hg10 mi
10:30 PM75 °FPassing clouds.9 mph21%30.12 "HgN/A
9:30 PM79 °FPassing clouds.9 mph15%30.09 "HgN/A
8:30 PM82 °FScattered clouds.9 mph12%30.09 "HgN/A
7:30 PM82 °FBroken clouds.12 mph14%30.07 "HgN/A
6:30 PM84 °FBroken clouds.14 mph11%30.07 "HgN/A
5:30 PM86 °FBroken clouds.16 mph8%30.04 "HgN/A
4:30 PM88 °FScattered clouds.14 mph10%30.07 "HgN/A
3:30 PM88 °FScattered clouds.14 mph10%30.07 "HgN/A
2:30 PM90 °FScattered clouds.14 mph9%30.07 "HgN/A
1:30 PM90 °FPassing clouds.14 mph9%30.09 "HgN/A
12:20 PM88 °FPassing clouds.12 mph10%30.12 "HgN/A
12:00 PM88 °FSunny.9 mph11%30.12 "Hg10 mi
11:30 AM86 °FSunny.12 mph11%30.12 "Hg10 mi
11:00 AM86 °FSunny.5 mph11%30.12 "Hg10 mi
10:30 AM84 °FSunny.5 mph12%30.15 "Hg10 mi
Weather by CustomWeather, © 2015

See weather overviewHow to use our weather pages